• în România
  • Lista ţărilor
  • Pe 7 zile
  • Temperatura apei
  • Hartă satelitară
  • Meteo pe hartă
  • Widget-uri
  • user-avatar
    Intrare

    Meteo pe oră la Sokur

    Astăzi, 22 Octombrie, Luni

    Timp Temperatura Precipitaţii Vânt Presiune Umiditate
    00:00 +6°C° 0 mm 4 m/s 759 mmHg 64%
    01:00 +6°C° 0.1 mm 4 m/s 759 mmHg 65%
    02:00 +6°C° 0.1 mm 4 m/s 759 mmHg 67%
    03:00 +5°C° 0 mm 3 m/s 759 mmHg 71%
    04:00 +5°C° 0 mm 3 m/s 759 mmHg 72%
    05:00 +5°C° 0 mm 3 m/s 759 mmHg 73%
    06:00 +5°C° 0 mm 3 m/s 759 mmHg 73%
    07:00 +5°C° 0 mm 3 m/s 759 mmHg 72%
    08:00 +5°C° 0 mm 3 m/s 759 mmHg 71%
    09:00 +6°C° 0 mm 4 m/s 760 mmHg 69%
    10:00 +6°C° 0 mm 4 m/s 759 mmHg 66%
    11:00 +7°C° 0 mm 4 m/s 759 mmHg 64%
    12:00 +8°C° 0 mm 4 m/s 759 mmHg 61%
    13:00 +8°C° 0 mm 4 m/s 759 mmHg 59%
    14:00 +10°C° 0 mm 4 m/s 758 mmHg 57%
    15:00 +11°C° 0 mm 3 m/s 758 mmHg 55%
    16:00 +10°C° 0 mm 3 m/s 758 mmHg 57%
    17:00 +10°C° 0 mm 3 m/s 757 mmHg 59%
    18:00 +9°C° 0 mm 2 m/s 757 mmHg 61%
    19:00 +9°C° 0 mm 3 m/s 757 mmHg 61%
    20:00 +9°C° 0 mm 3 m/s 757 mmHg 61%
    21:00 +8°C° 0 mm 3 m/s 757 mmHg 62%
    22:00 +9°C° 0 mm 3 m/s 756 mmHg 60%
    23:00 +9°C° 0 mm 3 m/s 756 mmHg 58%

    Mâine, 23 Octombrie, Marţi

    Timp Temperatura Precipitaţii Vânt Presiune Umiditate
    00:00 +9°C° 0 mm 3 m/s 755 mmHg 56%
    01:00 +9°C° 0 mm 3 m/s 755 mmHg 56%
    02:00 +9°C° 0 mm 3 m/s 754 mmHg 56%
    03:00 +9°C° 0 mm 3 m/s 754 mmHg 56%
    04:00 +8°C° 0.1 mm 4 m/s 753 mmHg 59%
    05:00 +7°C° 0.1 mm 4 m/s 753 mmHg 61%
    06:00 +7°C° 0.1 mm 4 m/s 752 mmHg 64%
    07:00 +8°C° 0.1 mm 4 m/s 751 mmHg 64%
    08:00 +8°C° 0.1 mm 5 m/s 751 mmHg 65%
    09:00 +8°C° 0.1 mm 5 m/s 751 mmHg 66%
    10:00 +9°C° 0.1 mm 5 m/s 750 mmHg 66%
    11:00 +9°C° 0.1 mm 6 m/s 749 mmHg 66%
    12:00 +9°C° 0.1 mm 6 m/s 749 mmHg 67%
    13:00 +9°C° 0.2 mm 6 m/s 748 mmHg 71%
    14:00 +9°C° 0.2 mm 6 m/s 747 mmHg 76%
    15:00 +9°C° 0.2 mm 6 m/s 747 mmHg 81%
    16:00 +9°C° 0.2 mm 5 m/s 746 mmHg 83%
    17:00 +9°C° 0.2 mm 5 m/s 746 mmHg 85%
    18:00 +10°C° 0.2 mm 4 m/s 745 mmHg 86%
    19:00 +10°C° 0 mm 4 m/s 745 mmHg 88%
    20:00 +10°C° 0 mm 4 m/s 745 mmHg 90%
    21:00 +10°C° 0 mm 3 m/s 745 mmHg 92%
    22:00 +9°C° 0 mm 3 m/s 744 mmHg 92%
    23:00 +9°C° 0 mm 3 m/s 744 mmHg 92%

    Poimâine, 24 Octombrie, Miercuri

    Timp Temperatura Precipitaţii Vânt Presiune Umiditate
    00:00 +9°C° 0 mm 3 m/s 744 mmHg 91%
    01:00 +8°C° 0 mm 3 m/s 744 mmHg 92%
    02:00 +8°C° 0 mm 2 m/s 743 mmHg 92%
    03:00 +7°C° 0 mm 2 m/s 743 mmHg 92%
    04:00 +7°C° 0 mm 3 m/s 743 mmHg 92%
    05:00 +5°C° 0 mm 3 m/s 743 mmHg 91%
    06:00 +5°C° 0 mm 3 m/s 742 mmHg 91%
    07:00 +6°C° 0 mm 4 m/s 742 mmHg 82%
    08:00 +7°C° 0 mm 5 m/s 742 mmHg 74%
    09:00 +8°C° 0 mm 6 m/s 742 mmHg 65%
    10:00 +9°C° 0 mm 6 m/s 742 mmHg 59%
    11:00 +10°C° 0 mm 6 m/s 741 mmHg 54%
    12:00 +11°C° 0 mm 7 m/s 741 mmHg 48%
    13:00 +11°C° 0 mm 6 m/s 741 mmHg 49%
    14:00 +11°C° 0 mm 6 m/s 740 mmHg 49%
    15:00 +11°C° 0 mm 6 m/s 740 mmHg 50%
    16:00 +12°C° 0 mm 5 m/s 740 mmHg 55%
    17:00 +10°C° 0 mm 5 m/s 740 mmHg 60%
    18:00 +9°C° 0 mm 5 m/s 740 mmHg 65%
    19:00 +9°C° 0 mm 5 m/s 739 mmHg 65%
    20:00 +9°C° 0 mm 5 m/s 739 mmHg 65%
    21:00 +10°C° 0 mm 5 m/s 739 mmHg 65%
    22:00 +10°C° 0.3 mm 6 m/s 738 mmHg 71%
    23:00 +10°C° 0.3 mm 6 m/s 738 mmHg 77%

    25 Octombrie, Joi

    Timp Temperatura Precipitaţii Vânt Presiune Umiditate
    00:00 +10°C° 0.3 mm 7 m/s 738 mmHg 83%
    01:00 +11°C° 0.7 mm 7 m/s 737 mmHg 85%
    02:00 +11°C° 0.7 mm 7 m/s 737 mmHg 87%
    03:00 +11°C° 0.7 mm 7 m/s 736 mmHg 89%
    04:00 +11°C° 1 mm 7 m/s 736 mmHg 88%
    05:00 +11°C° 1 mm 8 m/s 735 mmHg 88%
    06:00 +11°C° 1 mm 8 m/s 735 mmHg 87%
    07:00 +11°C° 0.2 mm 8 m/s 734 mmHg 86%
    08:00 +11°C° 0.2 mm 8 m/s 734 mmHg 85%
    09:00 +12°C° 0.2 mm 8 m/s 734 mmHg 83%
    10:00 +12°C° 0.8 mm 8 m/s 734 mmHg 83%
    11:00 +12°C° 0.8 mm 8 m/s 733 mmHg 84%
    12:00 +12°C° 0.8 mm 9 m/s 733 mmHg 84%
    13:00 +12°C° 0.5 mm 8 m/s 733 mmHg 81%
    14:00 +12°C° 0.5 mm 8 m/s 734 mmHg 78%
    15:00 +11°C° 0.5 mm 7 m/s 734 mmHg 75%
    16:00 +10°C° 0.1 mm 7 m/s 734 mmHg 69%
    17:00 +9°C° 0.1 mm 6 m/s 734 mmHg 63%
    18:00 +9°C° 0.1 mm 5 m/s 735 mmHg 57%
    19:00 +8°C° 0 mm 5 m/s 735 mmHg 60%
    20:00 +7°C° 0 mm 5 m/s 735 mmHg 63%
    21:00 +7°C° 0 mm 5 m/s 735 mmHg 65%
    22:00 +6°C° 0 mm 5 m/s 736 mmHg 66%
    23:00 +6°C° 0 mm 5 m/s 736 mmHg 66%

    26 Octombrie, Vineri

    Timp Temperatura Precipitaţii Vânt Presiune Umiditate
    00:00 +6°C° 0 mm 5 m/s 736 mmHg 67%
    01:00 +5°C° 0 mm 5 m/s 736 mmHg 69%
    02:00 +5°C° 0 mm 5 m/s 736 mmHg 71%
    03:00 +3°C° 0 mm 5 m/s 736 mmHg 73%
    04:00 +3°C° 0 mm 5 m/s 736 mmHg 75%
    05:00 +2°C° 0 mm 5 m/s 736 mmHg 76%
    06:00 +2°C° 0 mm 5 m/s 736 mmHg 78%
    07:00 +3°C° 0 mm 6 m/s 737 mmHg 76%
    08:00 +3°C° 0 mm 6 m/s 737 mmHg 74%
    09:00 +4°C° 0 mm 7 m/s 738 mmHg 72%
    10:00 +5°C° 0 mm 7 m/s 738 mmHg 66%
    11:00 +6°C° 0 mm 7 m/s 738 mmHg 60%
    12:00 +6°C° 0 mm 7 m/s 738 mmHg 54%
    13:00 +6°C° 0 mm 7 m/s 738 mmHg 54%
    14:00 +6°C° 0 mm 7 m/s 739 mmHg 54%
    15:00 +6°C° 0 mm 7 m/s 739 mmHg 55%
    16:00 +5°C° 0 mm 6 m/s 739 mmHg 58%
    17:00 +5°C° 0 mm 6 m/s 740 mmHg 61%
    18:00 +5°C° 0 mm 5 m/s 740 mmHg 64%
    19:00 +5°C° 0.1 mm 5 m/s 741 mmHg 67%
    20:00 +3°C° 0.1 mm 5 m/s 741 mmHg 70%
    21:00 +3°C° 0.1 mm 5 m/s 742 mmHg 73%
    22:00 +3°C° 0.2 mm 5 m/s 742 mmHg 74%
    23:00 +3°C° 0.2 mm 5 m/s 743 mmHg 75%

    27 Octombrie, Sâmbătă

    Timp Temperatura Precipitaţii Vânt Presiune Umiditate
    00:00 +3°C° 0.2 mm 5 m/s 743 mmHg 76%
    01:00 +2°C° 0 mm 5 m/s 744 mmHg 74%
    02:00 +2°C° 0 mm 6 m/s 745 mmHg 72%
    03:00 +1°C° 0 mm 6 m/s 745 mmHg 70%
    04:00 +1°C° 0 mm 5 m/s 746 mmHg 71%
    05:00 0°C° 0 mm 5 m/s 747 mmHg 72%
    06:00 0°C° 0 mm 5 m/s 747 mmHg 73%
    07:00 +1°C° 0 mm 6 m/s 748 mmHg 69%
    08:00 +2°C° 0 mm 6 m/s 749 mmHg 65%
    09:00 +2°C° 0 mm 7 m/s 750 mmHg 61%
    10:00 +3°C° 0 mm 7 m/s 750 mmHg 57%
    11:00 +4°C° 0 mm 7 m/s 751 mmHg 53%
    12:00 +5°C° 0 mm 7 m/s 751 mmHg 50%
    13:00 +5°C° 0 mm 7 m/s 752 mmHg 50%
    14:00 +5°C° 0 mm 7 m/s 752 mmHg 51%
    15:00 +5°C° 0 mm 7 m/s 753 mmHg 51%
    16:00 +4°C° 0 mm 6 m/s 753 mmHg 56%
    17:00 +3°C° 0 mm 5 m/s 754 mmHg 60%
    18:00 +4°C° 0 mm 4 m/s 754 mmHg 65%
    19:00 +3°C° 0 mm 4 m/s 755 mmHg 67%
    20:00 +3°C° 0 mm 4 m/s 755 mmHg 68%
    21:00 +3°C° 0 mm 4 m/s 755 mmHg 69%
    22:00 +3°C° 0 mm 4 m/s 755 mmHg 69%
    23:00 +3°C° 0 mm 4 m/s 755 mmHg 69%

    28 Octombrie, Duminică

    Timp Temperatura Precipitaţii Vânt Presiune Umiditate
    00:00 +3°C° 0 mm 4 m/s 755 mmHg 68%
    01:00 +2°C° 0 mm 5 m/s 755 mmHg 67%
    02:00 +3°C° 0 mm 5 m/s 755 mmHg 67%
    03:00 +3°C° 0 mm 5 m/s 756 mmHg 66%
    04:00 +3°C° 0 mm 5 m/s 755 mmHg 69%
    05:00 +3°C° 0 mm 5 m/s 755 mmHg 73%
    06:00 +3°C° 0 mm 5 m/s 755 mmHg 76%
    07:00 +5°C° 0 mm 5 m/s 755 mmHg 78%
    08:00 +5°C° 0 mm 6 m/s 755 mmHg 80%
    09:00 +7°C° 0 mm 6 m/s 756 mmHg 82%
    10:00 +8°C° 0.1 mm 7 m/s 756 mmHg 80%
    11:00 +9°C° 0.1 mm 7 m/s 755 mmHg 78%
    12:00 +10°C° 0.1 mm 7 m/s 755 mmHg 75%
    13:00 +10°C° 0.5 mm 7 m/s 755 mmHg 74%
    14:00 +11°C° 0.5 mm 6 m/s 755 mmHg 73%
    15:00 +11°C° 0.5 mm 6 m/s 755 mmHg 72%
    16:00 +11°C° 0 mm 6 m/s 755 mmHg 73%
    17:00 +11°C° 0 mm 6 m/s 755 mmHg 74%
    18:00 +10°C° 0 mm 6 m/s 755 mmHg 75%
    19:00 +10°C° 0 mm 6 m/s 756 mmHg 75%
    20:00 +10°C° 0 mm 7 m/s 756 mmHg 74%
    21:00 +10°C° 0 mm 7 m/s 756 mmHg 73%
    22:00 +10°C° 0 mm 7 m/s 756 mmHg 72%
    23:00 +10°C° 0 mm 7 m/s 756 mmHg 70%
    Arată mai mult